sat.trackr.live / text

‹ back to catalog

STARLINK-33866

NORAD 63653 · 2025-083V

PAYLOAD ACTIVE UNKNOWN

§ Identity

Operator
Country
US
Launch date
2025-04-25
Launch site
AFETR
Launch vehicle
Mass (kg)
RCS (m²)

Purposes: comms

External: N2YO · Heavens-Above · Gunter

§ Orbital elements

Epoch: 2026-05-25T02:54:45.915264Z

Period
94.27 min
Inclination
43.0015°
Eccentricity
0.0001448
Mean motion
15.27583568 rev/d
Perigee alt
482.0 km
Apogee alt
484.0 km
Semi-major
6,861.2 km
B*
7.1827e-4
RAAN
293.7724°
Arg perigee
282.4742°
Mean anomaly
77.5948°
Rev number
6,178

§ Raw data

STARLINK-338661 63653U 25083V   26145.12136476  .00019558  00000+0  71827-3 0  99942 63653  43.0015 293.7724 0001448 282.4742  77.5948 15.27583568 61780

JSON: /api/v1/satellites/63653 · /tle

For live sub-satellite position, see the globe view (requires WebGL).

§ Visibility from observer

Set your observer location to see the next 7 days of passes ≥ 10°. The values pass through the URL so the page stays shareable.

No JS? Fill the form by hand. The geolocation button needs JavaScript.